| time (UTC) | temp C | wind direction | speed KPH | gust KPH | rain 1hr cm | rain 24hr cm | rain mn cm | humidity % | barometer mb |
| 20260504033603 | 13 | 315 | 8.0 | 9.7 | 0.00 | 0.00 | 0.00 | 60 | |
| 20260504033102 | 13 | 310 | 6.4 | 9.7 | 0.00 | 0.00 | 0.00 | 60 | |
| 20260504032601 | 13 | 321 | 8.0 | 9.7 | 0.00 | 0.00 | 0.00 | 60 | |
| 20260504032100 | 13 | 0 | 9.7 | 9.7 | 0.00 | 0.00 | 0.00 | 60 | |
| 20260504031600 | 13 | 0 | 8.0 | 9.7 | 0.00 | 0.00 | 0.00 | 60 | |
| 20260504031059 | 13 | 0 | 8.0 | 9.7 | 0.00 | 0.00 | 0.00 | 60 | |
| 20260504030558 | 13 | 24 | 6.4 | 8.0 | 0.00 | 0.00 | 0.00 | 60 | |
| 20260504030057 | 13 | 12 | 6.4 | 6.4 | 0.00 | 0.00 | 0.00 | 61 | |
| 20260504025556 | 13 | 334 | 1.6 | 6.4 | 0.00 | 0.00 | 0.00 | 60 | |
| 20260504025055 | 13 | 315 | 4.8 | 6.4 | 0.00 | 0.00 | 0.00 | 60 | |
| 20260504024554 | 13 | 316 | 4.8 | 8.0 | 0.00 | 0.00 | 0.00 | 61 | |
| 20260504024053 | 13 | 0 | 6.4 | 9.7 | 0.00 | 0.00 | 0.00 | 60 | |
| 20260504023552 | 13 | 45 | 8.0 | 9.7 | 0.00 | 0.00 | 0.00 | 60 | |
| 20260504023051 | 13 | 45 | 9.7 | 11.3 | 0.00 | 0.00 | 0.00 | 60 | |
| 20260504022551 | 13 | 16 | 8.0 | 11.3 | 0.00 | 0.00 | 0.00 | 61 | |
| 20260504022050 | 13 | 4 | 8.0 | 9.7 | 0.00 | 0.00 | 0.00 | 62 | |
| 20260504021549 | 13 | 0 | 8.0 | 9.7 | 0.00 | 0.00 | 0.00 | 62 | |
| 20260504021048 | 13 | 0 | 6.4 | 9.7 | 0.00 | 0.00 | 0.00 | 62 | |
| 20260504020547 | 13 | 40 | 8.0 | 9.7 | 0.00 | 0.00 | 0.00 | 62 | |
| 20260504020046 | 13 | 0 | 4.8 | 6.4 | 0.00 | 0.00 | 0.00 | 62 | |
| 20260504015545 | 12 | 261 | 3.2 | 6.4 | 0.00 | 0.00 | 0.00 | 62 | |
| 20260504015045 | 12 | 213 | 1.6 | 6.4 | 0.00 | 0.00 | 0.00 | 62 | |
| 20260504014544 | 13 | 315 | 4.8 | 6.4 | 0.00 | 0.00 | 0.00 | 66 | |
| 20260504014043 | 13 | 315 | 6.4 | 6.4 | 0.00 | 0.00 | 0.00 | 66 | |
| 20260504013542 | 13 | 315 | 6.4 | 8.0 | 0.00 | 0.00 | 0.00 | 65 | |
| 20260504013041 | 12 | 315 | 8.0 | 8.0 | 0.00 | 0.00 | 0.00 | 65 | |
| 20260504012540 | 12 | 315 | 4.8 | 6.4 | 0.00 | 0.00 | 0.00 | 66 | |
| 20260504012039 | 12 | 315 | 4.8 | 6.4 | 0.00 | 0.00 | 0.00 | 67 | |
| 20260504011537 | 12 | 285 | 4.8 | 6.4 | 0.00 | 0.00 | 0.00 | 68 | |
| 20260504011036 | 12 | 239 | 4.8 | 6.4 | 0.00 | 0.00 | 0.00 | 67 | |
| 20260504010536 | 12 | 270 | 6.4 | 8.0 | 0.00 | 0.00 | 0.00 | 67 | |
| 20260504010035 | 12 | 228 | 4.8 | 8.0 | 0.00 | 0.00 | 0.00 | 66 | |
| 20260504005534 | 13 | 231 | 6.4 | 8.0 | 0.00 | 0.00 | 0.00 | 64 | |
| 20260504005033 | 13 | 233 | 6.4 | 9.7 | 0.00 | 0.00 | 0.00 | 63 | |
| 20260504004532 | 13 | 225 | 8.0 | 9.7 | 0.00 | 0.00 | 0.00 | 62 | |
| 20260504004031 | 13 | 227 | 6.4 | 9.7 | 0.00 | 0.00 | 0.00 | 60 | |
| 20260504003531 | 13 | 225 | 3.2 | 4.8 | 0.00 | 0.00 | 0.00 | 59 | |
| 20260504003030 | 13 | 252 | 3.2 | 4.8 | 0.00 | 0.00 | 0.00 | 56 | |
| 20260504002529 | 13 | 257 | 3.2 | 3.2 | 0.00 | 0.00 | 0.00 | 54 | |
| 20260504002028 | 13 | 225 | 1.6 | 3.2 | 0.00 | 0.00 | 0.00 | 50 | |
| 20260504001527 | 13 | 241 | 3.2 | 3.2 | 0.00 | 0.00 | 0.00 | 50 | |
| 20260504001027 | 13 | 269 | 1.6 | 4.8 | 0.00 | 0.00 | 0.00 | 53 | |
| 20260504000526 | 14 | 224 | 1.6 | 6.4 | 0.00 | 0.00 | 0.00 | 52 | |
| 20260504000025 | 14 | 225 | 4.8 | 6.4 | 0.00 | 0.00 | 0.00 | 50 | |
| 20260503235524 | 14 | 212 | 4.8 | 4.8 | 0.00 | 0.00 | 0.00 | 49 | |
| 20260503235023 | 14 | 159 | 3.2 | 4.8 | 0.00 | 0.00 | 0.00 | 46 | |
| 20260503234522 | 14 | 55 | 3.2 | 4.8 | 0.00 | 0.00 | 0.00 | 49 | |
| 20260503234021 | 13 | 214 | 1.6 | 6.4 | 0.00 | 0.00 | 0.00 | 54 | |
| 20260503233521 | 13 | 225 | 4.8 | 9.7 | 0.00 | 0.00 | 0.00 | 56 | |
| 20260503233020 | 13 | 225 | 6.4 | 9.7 | 0.00 | 0.00 | 0.00 | 57 | |
| 20260503232519 | 14 | 225 | 8.0 | 11.3 | 0.00 | 0.00 | 0.00 | 57 | |
| 20260503232018 | 14 | 195 | 9.7 | 11.3 | 0.00 | 0.00 | 0.00 | 54 | |
| 20260503231517 | 14 | 179 | 8.0 | 11.3 | 0.00 | 0.00 | 0.00 | 50 | |
| 20260503231016 | 15 | 179 | 8.0 | 11.3 | 0.00 | 0.00 | 0.00 | 50 | |
| 20260503225956 | 14 | 137 | 9.7 | 11.3 | 0.00 | 0.00 | 0.00 | 52 | |
| 20260503225455 | 14 | 136 | 8.0 | 9.7 | 0.00 | 0.00 | 0.00 | 62 | |
| 20260503224955 | 14 | 135 | 6.4 | 8.0 | 0.00 | 0.00 | 0.00 | 66 | |
| 20260503224454 | 13 | 132 | 6.4 | 8.0 | 0.00 | 0.00 | 0.00 | 65 | |
| 20260503223953 | 13 | 132 | 6.4 | 6.4 | 0.00 | 0.00 | 0.00 | 67 | |
| 20260503223452 | 13 | 135 | 6.4 | 6.4 | 0.00 | 0.00 | 0.00 | 67 | |
| 20260503222951 | 14 | 134 | 4.8 | 6.4 | 0.00 | 0.00 | 0.00 | 66 | |
| 20260503222450 | 14 | 136 | 6.4 | 6.4 | 0.00 | 0.00 | 0.00 | 65 | |
| 20260503221949 | 14 | 129 | 4.8 | 6.4 | 0.00 | 0.00 | 0.00 | 65 | |
| 20260503221448 | 14 | 126 | 4.8 | 6.4 | 0.00 | 0.00 | 0.00 | 65 | |
| 20260503220947 | 14 | 120 | 3.2 | 6.4 | 0.00 | 0.00 | 0.00 | 64 | |
| 20260503220447 | 14 | 133 | 4.8 | 6.4 | 0.00 | 0.00 | 0.00 | 64 | |
| 20260503215946 | 14 | 118 | 3.2 | 6.4 | 0.00 | 0.00 | 0.00 | 63 | |
| 20260503215445 | 14 | 135 | 4.8 | 6.4 | 0.00 | 0.00 | 0.00 | 63 | |
| 20260503214944 | 14 | 119 | 3.2 | 6.4 | 0.00 | 0.00 | 0.00 | 62 | |
| 20260503214444 | 15 | 115 | 4.8 | 6.4 | 0.00 | 0.00 | 0.00 | 62 | |
| 20260503213943 | 15 | 100 | 4.8 | 6.4 | 0.00 | 0.00 | 0.00 | 62 | |
| 20260503213442 | 14 | 115 | 4.8 | 6.4 | 0.00 | 0.00 | 0.00 | 62 | |
| 20260503212941 | 15 | 116 | 3.2 | 6.4 | 0.00 | 0.00 | 0.00 | 62 | |
| 20260503212440 | 15 | 106 | 4.8 | 6.4 | 0.00 | 0.00 | 0.00 | 62 | |
| 20260503211939 | 14 | 90 | 6.4 | 8.0 | 0.00 | 0.00 | 0.00 | 64 | |
| 20260503211439 | 15 | 90 | 6.4 | 9.7 | 0.00 | 0.00 | 0.00 | 65 | |
| 20260503210938 | 14 | 88 | 8.0 | 9.7 | 0.00 | 0.00 | 0.00 | 66 | |
| 20260503210437 | 14 | 85 | 8.0 | 11.3 | 0.00 | 0.00 | 0.00 | 66 | |
| 20260503205936 | 14 | 74 | 8.0 | 11.3 | 0.00 | 0.00 | 0.00 | 66 | |
| 20260503205435 | 14 | 79 | 9.7 | 12.9 | 0.00 | 0.00 | 0.00 | 66 | |
| 20260503204934 | 14 | 74 | 9.7 | 12.9 | 0.00 | 0.00 | 0.00 | 65 | |
| 20260503204433 | 13 | 72 | 9.7 | 16.1 | 0.00 | 0.00 | 0.00 | 65 | |
| 20260503203933 | 13 | 66 | 9.7 | 16.1 | 0.00 | 0.00 | 0.00 | 65 | |
| 20260503203432 | 13 | 61 | 9.7 | 12.9 | 0.00 | 0.00 | 0.00 | 66 | |
| 20260503202931 | 13 | 61 | 9.7 | 14.5 | 0.00 | 0.00 | 0.00 | 67 | |
| 20260503202430 | 13 | 54 | 11.3 | 14.5 | 0.00 | 0.00 | 0.00 | 67 | |
| 20260503201929 | 13 | 53 | 11.3 | 16.1 | 0.00 | 0.00 | 0.00 | 67 | |
| 20260503201428 | 13 | 53 | 11.3 | 16.1 | 0.00 | 0.00 | 0.00 | 67 | |
| 20260503200927 | 13 | 56 | 11.3 | 14.5 | 0.00 | 0.00 | 0.00 | 66 | |
| 20260503200426 | 13 | 49 | 11.3 | 14.5 | 0.00 | 0.00 | 0.00 | 65 | |
| 20260503195925 | 13 | 51 | 11.3 | 16.1 | 0.00 | 0.00 | 0.00 | 64 | |
| 20260503195424 | 13 | 50 | 12.9 | 16.1 | 0.00 | 0.00 | 0.00 | 64 | |
| 20260503194924 | 13 | 48 | 12.9 | 16.1 | 0.00 | 0.00 | 0.00 | 64 | |
| 20260503194423 | 13 | 46 | 12.9 | 16.1 | 0.00 | 0.00 | 0.00 | 65 | |
| 20260503193922 | 13 | 49 | 14.5 | 16.1 | 0.00 | 0.00 | 0.00 | 66 | |
| 20260503193421 | 13 | 46 | 12.9 | 16.1 | 0.00 | 0.00 | 0.00 | 65 | |
| 20260503192920 | 13 | 47 | 12.9 | 16.1 | 0.00 | 0.00 | 0.00 | 64 | |
| 20260503192419 | 13 | 46 | 12.9 | 17.7 | 0.00 | 0.00 | 0.00 | 63 | |
| 20260503191919 | 13 | 47 | 12.9 | 17.7 | 0.00 | 0.00 | 0.00 | 64 | |
| 20260503191418 | 13 | 49 | 12.9 | 16.1 | 0.00 | 0.00 | 0.00 | 64 | |
| 20260503190917 | 13 | 47 | 11.3 | 16.1 | 0.00 | 0.00 | 0.00 | 65 | |
| 20260503190416 | 13 | 45 | 12.9 | 17.7 | 0.00 | 0.00 | 0.00 | 62 | |
| 20260503185915 | 12 | 44 | 14.5 | 17.7 | 0.00 | 0.00 | 0.00 | 60 | |
| 20260503185414 | 12 | 39 | 12.9 | 16.1 | 0.00 | 0.00 | 0.00 | 61 | |
| 20260503184913 | 12 | 43 | 11.3 | 14.5 | 0.00 | 0.00 | 0.00 | 62 | |
| 20260503184412 | 13 | 44 | 12.9 | 14.5 | 0.00 | 0.00 | 0.00 | 63 | |
| 20260503183911 | 13 | 45 | 12.9 | 14.5 | 0.00 | 0.00 | 0.00 | 63 | |
| 20260503183410 | 13 | 42 | 11.3 | 12.9 | 0.00 | 0.00 | 0.00 | 64 | |
| 20260503182909 | 13 | 45 | 8.0 | 9.7 | 0.00 | 0.00 | 0.00 | 64 | |
| 20260503182409 | 13 | 10 | 4.8 | 6.4 | 0.00 | 0.00 | 0.00 | 64 | |
| 20260503181908 | 13 | 344 | 1.6 | 4.8 | 0.00 | 0.00 | 0.00 | 64 | |
| 20260503181406 | 13 | 339 | 3.2 | 4.8 | 0.00 | 0.00 | 0.00 | 64 | |
| 20260503180905 | 13 | 27 | 3.2 | 4.8 | 0.00 | 0.00 | 0.00 | 64 | |
| 20260503180403 | 13 | 0 | 3.2 | 4.8 | 0.00 | 0.00 | 0.00 | 64 | |
| 20260503175902 | 13 | 0 | 3.2 | 4.8 | 0.00 | 0.00 | 0.00 | 63 | |
| 20260503175401 | 13 | 312 | 1.6 | 3.2 | 0.00 | 0.00 | 0.00 | 62 | |
| 20260503174900 | 14 | 270 | 1.6 | 4.8 | 0.00 | 0.00 | 0.00 | 62 | |
| 20260503174359 | 14 | 270 | 3.2 | 4.8 | 0.00 | 0.00 | 0.00 | 62 | |
| 20260503173859 | 14 | 269 | 3.2 | 6.4 | 0.00 | 0.00 | 0.00 | 62 | |
| 20260503173358 | 14 | 263 | 4.8 | 6.4 | 0.00 | 0.00 | 0.00 | 62 | |
| 20260503172857 | 15 | 257 | 3.2 | 4.8 | 0.00 | 0.00 | 0.00 | 62 | |
| 20260503172356 | 15 | 249 | 3.2 | 4.8 | 0.00 | 0.00 | 0.00 | 61 | |
| 20260503171855 | 16 | 251 | 1.6 | 3.2 | 0.00 | 0.00 | 0.00 | 61 | |
| 20260503171355 | 15 | 131 | 0.0 | 3.2 | 0.00 | 0.00 | 0.00 | 61 | |
| 20260503170854 | 15 | 83 | 1.6 | 3.2 | 0.00 | 0.00 | 0.00 | 61 | |
| 20260503170353 | 16 | 277 | 1.6 | 3.2 | 0.00 | 0.00 | 0.00 | 61 | |
| 20260503150833 | 17 | 161 | 6.4 | 12.9 | 0.00 | 0.00 | 0.00 | 55 | |
| 20260503150332 | 17 | 196 | 4.8 | 11.3 | 0.00 | 0.00 | 0.00 | 54 | |
| 20260503131313 | 16 | 247 | 12.9 | 19.3 | 0.00 | 0.00 | 0.00 | 56 | |
| 20260503130812 | 16 | 242 | 11.3 | 22.5 | 0.00 | 0.00 | 0.00 | 54 | |
| 20260503130311 | 16 | 253 | 11.3 | 22.5 | 0.00 | 0.00 | 0.00 | 53 | |
| 20260503110746 | 18 | 179 | 8.0 | 17.7 | 0.00 | 0.00 | 0.00 | 51 | |
| 20260503110245 | 17 | 273 | 3.2 | 11.3 | 0.00 | 0.00 | 0.00 | 55 | |
| 20260503100235 | 13 | 243 | 16.1 | 25.7 | 0.00 | 0.00 | 0.00 | 68 | |
| 20260503090225 | 15 | 292 | 3.2 | 11.3 | 0.00 | 0.00 | 0.00 | 70 | |
| 20260503081214 | 15 | 274 | 3.2 | 9.7 | 0.00 | 0.00 | 0.00 | 72 | |
| 20260503080713 | 14 | 237 | 3.2 | 9.7 | 0.00 | 0.00 | 0.00 | 73 | |
| 20260503080212 | 14 | 269 | 6.4 | 9.7 | 0.00 | 0.00 | 0.00 | 74 | |
| 20260503072701 | 12 | 270 | 8.0 | 11.3 | 0.00 | 0.00 | 0.00 | 75 | |
| 20260503072200 | 12 | 269 | 8.0 | 9.7 | 0.00 | 0.00 | 0.00 | 74 | |
| 20260503071659 | 12 | 268 | 6.4 | 9.7 | 0.00 | 0.00 | 0.00 | 72 | |
| 20260503071158 | 12 | 261 | 6.4 | 9.7 | 0.00 | 0.00 | 0.00 | 71 | |
| 20260503070657 | 12 | 281 | 6.4 | 8.0 | 0.00 | 0.00 | 0.00 | 69 | |
| 20260503070154 | 13 | 273 | 4.8 | 6.4 | 0.00 | 0.00 | 0.00 | 67 | |
| 20260503060134 | 13 | 75 | 3.2 | 4.8 | 0.00 | 0.00 | 0.00 | 66 | |
| 20260503054629 | 13 | 105 | 3.2 | 6.4 | 0.00 | 0.00 | 0.00 | 64 | |
| 20260503054128 | 13 | 98 | 4.8 | 6.4 | 0.00 | 0.00 | 0.00 | 62 | |
| 20260503053627 | 13 | 91 | 4.8 | 8.0 | 0.00 | 0.00 | 0.00 | 60 | |
| 20260503053126 | 13 | 95 | 4.8 | 6.4 | 0.00 | 0.00 | 0.00 | 57 | |
| 20260503052651 | 13 | 90 | 6.4 | 6.4 | 0.00 | 0.00 | 0.00 | 57 | |
| 20260503052125 | 13 | 90 | 6.4 | 6.4 | 0.00 | 0.00 | 0.00 | 56 | |
| 20260503051624 | 13 | 90 | 4.8 | 6.4 | 0.00 | 0.00 | 0.00 | 56 | |
| 20260503051123 | 12 | 90 | 4.8 | 6.4 | 0.00 | 0.00 | 0.00 | 55 | |
| 20260503050622 | 13 | 90 | 6.4 | 8.0 | 0.00 | 0.00 | 0.00 | 56 | |
| 20260503050121 | 13 | 90 | 6.4 | 8.0 | 0.00 | 0.00 | 0.00 | 56 | |
| 20260503045621 | 13 | 90 | 6.4 | 8.0 | 0.00 | 0.00 | 0.00 | 55 | |
| 20260503045120 | 12 | 88 | 6.4 | 8.0 | 0.00 | 0.00 | 0.00 | 55 | |
| 20260503044618 | 12 | 86 | 6.4 | 6.4 | 0.00 | 0.00 | 0.00 | 55 | |
| 20260503044117 | 12 | 81 | 4.8 | 9.7 | 0.00 | 0.00 | 0.00 | 55 | |
| 20260503043616 | 12 | 83 | 8.0 | 9.7 | 0.00 | 0.00 | 0.00 | 56 | |
| 20260503043115 | 12 | 89 | 8.0 | 9.7 | 0.00 | 0.00 | 0.00 | 55 | |
| 20260503042614 | 12 | 90 | 8.0 | 9.7 | 0.00 | 0.00 | 0.00 | 55 | |
| 20260503042113 | 12 | 82 | 6.4 | 8.0 | 0.00 | 0.00 | 0.00 | 56 | |
| 20260503041613 | 12 | 47 | 3.2 | 4.8 | 0.00 | 0.00 | 0.00 | 54 | |
| 20260503041112 | 12 | 49 | 1.6 | 4.8 | 0.00 | 0.00 | 0.00 | 54 | |
| 20260503040611 | 12 | 73 | 3.2 | 6.4 | 0.00 | 0.00 | 0.00 | 55 | |
| 20260503040110 | 12 | 89 | 6.4 | 6.4 | 0.00 | 0.00 | 0.00 | 56 | |
| 20260503035609 | 12 | 69 | 6.4 | 6.4 | 0.00 | 0.00 | 0.00 | 57 | |
| 20260503035108 | 12 | 90 | 6.4 | 8.0 | 0.00 | 0.00 | 0.00 | 57 | |
| 20260503034607 | 12 | 88 | 6.4 | 8.0 | 0.00 | 0.00 | 0.00 | 58 | |
| 20260503034104 | 12 | 90 | 4.8 | 6.4 | 0.00 | 0.00 | 0.00 | 58 |